UmKA 1 (RS40S)
1 57172U 23091G   26019.63360540  .00007055  00000-0  34234-3 0  9998
2 57172  97.5281  78.9380 0011903 278.4913  81.4972 15.18739644141442
CubeBel-2 (EU11S)
1 57175U 23091K   26019.59140221  .00011693  00000-0  46884-3 0  9995
2 57175  97.5278  81.7379 0009383 280.2610  79.7570 15.25129935141623
RS-38S
1 57189U 23091Z   26019.63823662  .00015771  00000-0  53359-3 0  9998
2 57189  97.5304  86.5657 0007059 234.9226 125.1353 15.30677449141929
SONATE-2
1 59112U 24043Q   26019.64068758  .00027676  00000-0  54025-3 0  9990
2 59112  97.5345 162.3793 0008765  30.7382 329.4379 15.47421008104838
MO-122
1 60209U 24125G   26019.54884157  .00036546  00000-0  67222-3 0  9997
2 60209  97.2490 235.0175 0015353  48.1030 312.1528 15.48984940 86453
GRBBeta
1 60237U 24128C   26019.42411692  .00004557  00000-0  32266-3 0  9995
2 60237  61.9910  17.6805 0054861 103.8476 256.8729 15.05147901 83863
Curium One
1 60242U 24128H   26019.55957354  .00008145  00000-0  49985-3 0  9998
2 60242  61.9802  11.1493 0054617 100.4469 260.2786 15.09612915 83997
ROBUSTA-3A
1 60243U 24128J   26019.38153065  .00009034  00000-0  56319-3 0  9994
2 60243  61.9879  13.4854 0054954  97.9004 262.8333 15.08916544 83942
CatSat
1 60246U 24125J   26019.57013205  .00037399  00000-0  81335-3 0  9997
2 60246  97.2266 231.6248 0032240  12.1571 348.0448 15.43662287 84351
HYPERVIEW-1G (RS66S)
1 61772U 24199AP  26019.64770213  .00044290  00000-0  74742-3 0  9992
2 61772  97.3167 254.6510 0011677  96.4429 263.8154 15.51447040111482
AO-123
1 61781U 24199AY  26019.61150927  .00010052  00000-0  31804-3 0  9994
2 61781  97.3219 249.6652 0015849 116.8314 243.4551 15.32842619111144
ZIMSAT 2
1 61783U 24199BA  26019.35456962  .04862743  23849-5  18127-2 0  9994
2 61783  97.2851 260.0130 0004185  96.0999 264.0769 16.24493422114974
HADES-R (SO-124)
1 62690U 25009CK  26019.17417402  .00476247  00000-0  25197-2 0  9999
2 62690  97.3767 108.7160 0005610 290.2291  69.8372 15.79299138 56644
HYDRA-T
1 62692U 25009CM  26019.19469376  .00708803  00000-0  26129-2 0  9992
2 62692  97.3722 109.1448 0006634 290.7447  69.3113 15.86505799 56678
JINJUSat 1B
1 63210U 25052A   26019.65207345  .00016006  00000-0  58667-3 0  9994
2 63210  97.4185 276.6065 0001544 249.7324 110.3750 15.28075925 47377
NUSHSAT 1
1 63211U 25052B   26019.61834427  .00018075  00000-0  63640-3 0  9993
2 63211  97.4170 276.7528 0001360 263.9425  96.1661 15.29368591 47381
TEVEL2-4
1 63213U 25052D   26019.44086284  .00019654  00000-0  70851-3 0  9992
2 63213  97.4091 276.0462 0001135 323.2793  36.8369 15.28579308 47344
TEVEL2-5
1 63214U 25052E   26019.64476948  .00017371  00000-0  62835-3 0  9992
2 63214  97.4089 276.2309 0001146 321.5698  38.5460 15.28491767 47377
TEVEL2-6
1 63215U 25052F   26019.65322537  .00017552  00000-0  63575-3 0  9991
2 63215  97.4089 276.2265 0001233 318.8962  41.2184 15.28445992 47372
TEVEL2-1
1 63217U 25052H   26018.65667759  .00016552  00000-0  60703-3 0  9999
2 63217  97.4071 275.0140 0001961 341.0024  19.1142 15.28047905 47212
TEVEL2-3
1 63218U 25052J   26019.24463499  .00019148  00000-0  70050-3 0  9991
2 63218  97.4065 275.6066 0001928 342.6973  17.4200 15.28099624 47303
TEVEL2-2
1 63219U 25052K   26019.63966134  .00016960  00000-0  62118-3 0  9994
2 63219  97.4064 275.9917 0001902 340.2012  19.9153 15.28087025 47363
TEVEL2-9
1 63237U 25052AD  26019.64086112  .00016073  00000-0  61733-3 0  9991
2 63237  97.4127 275.6431 0005827 325.8187  34.2675 15.26511580 47324
TEVEL2-7
1 63238U 25052AE  26019.65884388  .00016229  00000-0  62661-3 0  9998
2 63238  97.4130 275.6267 0005943 325.7088  34.3766 15.26334361 47326
TEVEL2-8
1 63239U 25052AF  26019.27175142  .00017278  00000-0  66758-3 0  9994
2 63239  97.4127 275.2255 0005992 328.1585  31.9290 15.26297752 47269
HYDRA-W
1 63490U 25052BL  26018.69735798  .00080257  00000-0  15397-2 0  9996
2 63490  97.4034 278.1701 0004822 330.9015  29.1965 15.47695520 47427
HADES-ICM (SO-125)
1 63492U 25052BN  26019.65541451  .00062923  00000-0  13264-2 0  9997
2 63492  97.4049 278.7494 0005509 325.2236  34.8652 15.45012164 47549
Dragonfly
1 65729U 98067XH  26019.16747573  .00543896  12862-3  15203-2 0  9997
2 65729  51.6184 301.6176 0007963 143.4296 216.7256 15.93020939 19082
RSP-03
1 65732U 98067XL  26019.49908863  .00257901  00000-0  11931-2 0  9999
2 65732  51.6242 302.3833 0005653 123.0141 237.1406 15.82194434 19114
GHS-01
1 65733U 98067XM  26019.13649771  .02101865  47330-2  16912-2 0  9993
2 65733  51.6184 299.1298 0007469 175.9019 184.2060 16.14745493 19127
BOTAN
1 65942U 98067XP  26019.20265850  .00186622  00000-0  13086-2 0  9997
2 65942  51.6262 308.6903 0005019 131.6074 228.5355 15.73080805 15740
CEVROSAT1
1 66309U 25248S   26019.50049953  .00004694  00000-0  23584-3 0  9996
2 66309  45.4040 197.9088 0003540 278.3090  81.7395 15.18626176 11891
SPIRONE
1 66657U 25274H   26019.21946312  .00002901  00000-0  28629-3 0  9998
2 66657  97.7419 310.7929 0013046 143.3292 216.8822 14.92697317  7991
K-HERO
1 66660U 25274L   26019.53654482  .00002274  00000-0  22280-3 0  9991
2 66660  97.7425 311.1505 0014852 147.5579 212.6557 14.93185008  8043
SNUGLITE-III DURI
1 66661U 25274M   26019.53172115  .00001982  00000-0  19425-3 0  9992
2 66661  97.7421 311.1550 0015428 148.9576 211.2558 14.93304456  8048
SilverSat
1 66909U 98067XV  26019.52399047  .00084195  00000-0  11053-2 0  9996
2 66909  51.6304 313.8517 0003736  93.4823 266.6597 15.57792687  7495
SAKHACUBE-CHOLBON
1 67290U 25313AU  26019.44843843  .00011297  00000-0  50360-3 0  9991
2 67290  97.4105  96.5746 0010575 152.8580 207.3211 15.21529840  3338
QMR-KWT
1 67291U 25313AV  26019.64507900  .00013507  00000-0  59981-3 0  9999
2 67291  97.4104  96.7697 0010462 152.3627 207.8167 15.21619333  3362
IO-86
1 40931U          25360.30710720  .00000000  00000-0  12800-3 0    00
2 40931   6.0006 332.5373 0012733 338.8432   8.1437 14.79075515    01
